Regional Weather Roundup
Issued by NWS

Home | Current Version | Previous Version | Graphics & Text | Print | Product List | Glossary On
Versions: 1 2 3 4 5 6 7 8 9 10 11 12 13 14 15 16 17 18 19 20 21 22 23 24 25 26 27 28 29 30 31 32 33 34 35 36 37 38 39 40 41 42 43 44 45 46 47 48 49 50
000
ASUS43 KLOT 011210
RWRIL

ILLINOIS REGIONAL WEATHER ROUNDUP
NATIONAL WEATHER SERVICE CHICAGO/ROMEOVILLE IL
700 AM CDT FRI AUG 01 2014

NOTE: "FAIR" INDICATES FEW OR NO CLOUDS BELOW 12,000 FEET WITH NO
SIGNIFICANT WEATHER AND/OR OBSTRUCTIONS TO VISIBILITY.

* THESE STATIONS ARE NOT UNDER NWS QUALITY CONTROL. THEY ALSO MAY NOT
  REPORT WEATHER SUCH AS PRECIPITATION OR FOG.

ILZ001-002-007-009-015-016-024-011300-
NORTHWEST ILLINOIS

CITY           SKY/WX    TMP DP  RH WIND       PRES   REMARKS
MOLINE         MOSUNNY   65  60  84 CALM      30.08R
6HR MIN TEMP:  63; 6HR MAX TEMP:  68; 6HR PCP:  0.21;

STERLING*      CLOUDY    61  57  88 CALM      30.09R
SAVANNA*       MOSUNNY   63  60  93 SE5       30.07S FOG
$$

ILZ003-004-008-010-011-017-018-011300-
NORTH CENTRAL ILLINOIS

CITY           SKY/WX    TMP DP  RH WIND       PRES   REMARKS
ROCKFORD       MOSUNNY   62  59  90 S5        30.10R
6HR MIN TEMP:  58; 6HR MAX TEMP:  62;

FREEPORT*      SUNNY     60  58  94 CALM      30.10R
ROCHELLE*      PTSUNNY   62  59  91 CALM      30.10R
DE KALB*       MOSUNNY   59  57  92 S5        30.11R THUNDER
PERU*          PTSUNNY   63  61  91 CALM      30.10R
$$

ILZ005-006-012>014-019>023-011300-
NORTHEAST ILLINOIS

CITY           SKY/WX    TMP DP  RH WIND       PRES   REMARKS
CHICAGO-OHARE  MOSUNNY   66  59  78 SW5       30.08R
6HR MIN TEMP:  62; 6HR MAX TEMP:  68;

CHICAGO-MIDWAY PTSUNNY   69  62  78 SW5       30.07S
6HR MIN TEMP:  67; 6HR MAX TEMP:  72;

AURORA         CLOUDY    63  58  83 SW7       30.10R HAZE
6HR MIN TEMP:  57; 6HR MAX TEMP:  63;

LANSING*       MOSUNNY   64  62  94 S3        30.09S FOG
JOLIET*        MOSUNNY   64  61  90 CALM      30.11R
WAUKEGAN       SUNNY     64  58  80 VRB3      30.06R
6HR MIN TEMP:  62; 6HR MAX TEMP:  66;

DUPAGE AIRPORT MOSUNNY   62  60  93 S6        30.09R FOG
6HR MIN TEMP:  57; 6HR MAX TEMP:  64;

KANKAKEE*      MOSUNNY   61  60  94 CALM      30.10S
WHEELING       SUNNY     65  59  81 S3        30.09R
6HR MIN TEMP:  61; 6HR MAX TEMP:  67;

MORRIS*        MOSUNNY   64  64 100 CALM      30.10R FOG
ROMEOVILLE*    CLOUDY    65  60  81 CALM      30.09R
NORTHERLY ISL    N/A     70  60  70 W6          N/A
$$

LMZ740>746-011300-
SOUTHERN LAKE MICHIGAN

STATION/POSITION SKY/WX   TEMP    WIND        PRES    VSBY  WAVE
                          AIR SEA DIR/SP/G                  HT/PER
                          (F)     (DEG/KT/KT) (MB)    (MI)  (FT/S)
SOUTHERN BUOY              64 62  240/  6/  6 1018.0R         0
WAUKEGAN HARBOR            67     280/  8/  9   N/A
HARRISON CRIB              70     260/ 11/ 13   N/A
BURNHAM HARBOR             71     250/  5/  8   N/A
CALUMET HARBOR             68     220/  4/  5 1017.4R
MICHIGAN CITY              67     170/  6/  7   N/A
MICHIGAN CITY 6N           67 69  200/  6/  8   N/A           1
ST. JOSEPH                 67 69  180/  6/  8   N/A           1/ 2
$$

ILZ025>027-034>036-040-047-049-050-058-095>099-011300-
WEST-CENTRAL ILLINOIS

CITY           SKY/WX    TMP DP  RH WIND       PRES   REMARKS
QUINCY         PTCLDY    66  58  75 CALM      30.07S
GALESBURG*     PTSUNNY   63  62  94 NW10      30.10R
MACOMB*        CLEAR     60  60  99 CALM      30.10R
JACKSONVILLE*  MOSUNNY   64  62  91 CALM      30.09R
PITTSFIELD*    CLOUDY    62  59  91 CALM      30.09R
$$

ILZ028>032-037-038-041>044-048-051>054-059>061-011300-
CENTRAL ILLINOIS

CITY           SKY/WX    TMP DP  RH WIND       PRES   REMARKS
PONTIAC        CLOUDY    63  63 100 CALM      30.09S FOG
DECATUR        SUNNY     60  57  89 CALM      30.09S FOG
PEORIA         MOSUNNY   68  62  81 CALM      30.09R
6HR MIN TEMP:  66; 6HR MAX TEMP:  69; 6HR PCP: TRACE;

LACON*         MOSUNNY   64  62  91 CALM      30.08R
LINCOLN*       MOSUNNY   63  60  91 CALM      30.07R
SPRINGFIELD    MOSUNNY   62  59  90 CALM      30.08F
6HR MIN TEMP:  59; 6HR MAX TEMP:  64;

TAYLORVILLE    MOSUNNY   59  59 100 S3        30.09R
$$

ILZ033-039-045-046-055>057-062-063-011300-
EAST-CENTRAL ILLINOIS

CITY           SKY/WX    TMP DP  RH WIND       PRES   REMARKS
CHAMPAIGN      MOSUNNY   62  60  93 SE5       30.10S FOG
DANVILLE*      MOSUNNY   59  58  97 E3        30.08S FOG
RANTOUL*       PTSUNNY   64  59  86 CALM      30.11R HAZE
MATTOON          N/A     66  62  87 SW5       30.09R
PARIS*         FOG       58  58  99 CALM      30.11S VSB 1
$$

ILZ079-100>102-011300-
SOUTHWEST ILLINOIS

CITY           SKY/WX    TMP DP  RH WIND       PRES   REMARKS
ALTON          MOCLDY    61  61 100 CALM      30.09S FOG
BELLEVILLE     FOG       62  62 100 E1        30.08S VSB 1/4
CAHOKIA*       CLEAR     62  61  96 CALM      30.09R FOG
SPARTA*        MOSUNNY   59  59 100 CALM      30.09S FOG
$$

ILZ064>066-069>071-074>076-080>082-084>086-088>090-092>094-011300-
SOUTH-CENTRAL ILLINOIS

CITY           SKY/WX    TMP DP  RH WIND       PRES   REMARKS
CARBONDALE     FOG       61  60  97 CALM      30.09S VSB 1/4
6HR MIN TEMP:  59; 6HR MAX TEMP:  64;

CAIRO*         MOSUNNY   66  64  93 CALM      30.08S
EFFINGHAM*     SUNNY     62  58  88 CALM      30.10S
MARION         SUNNY     61  61 100 MISG      30.10S
MT. VERNON     CLOUDY    61  55  82 CALM      30.10S
CENTRALIA*     FOG       62  60  94 CALM      30.10R VSB 1/4
SALEM*         SUNNY     62  61  98 CALM      30.10S FOG
METROPOLIS*    PTSUNNY   64  63  97 CALM      30.08S
$$

ILZ067-068-072-073-078-083-087-091-011300-
SOUTHEAST ILLINOIS

CITY           SKY/WX    TMP DP  RH WIND       PRES   REMARKS
LAWRENCEVILLE  FOG       63  63 100 CALM      30.11R VSB 1
FLORA*         FOG       58  57  99 CALM      30.10S VSB 3/4
FAIRFIELD*     MOSUNNY   63  63 100 CALM      30.10R FOG
HARRISBURG*    FOG       60  60 100 CALM      30.11R VSB 3/4
ROBINSON*      PTSUNNY   62  61  98 CALM      30.11S FOG
$$

ABBREVIATIONS USED IN REMARKS
   TC - TEMPERATURE IN CELSIUS
  WCI - WIND CHILL INDEX
   HX - HEAT INDEX
  VSB - VISIBILITY
$$



USA.gov is the U.S. government's official web portal to all federal, state and local government web resources and services.